STARLINK-32398, 61624

Orbit data source: Space-Track

STARLINK-32398, 61624 is a payload satellite owned by SpaceX/Seattle (US) in LEO that was launched on Wed, 23 Oct 2024 UTC via an FALCON 9 launch vehicle from the Air Force Eastern Test Range (AFETR). Payload-class satellites include a variety of spacecraft equipped with specific instruments for various scientific and technological missions. These include communications satellites like Starlink; space stations such as the ISS; scientific satellites like the Hubble; Earth observation satellites from companies like Planet Labs, Umbra, and HawkEye 360; GPS; miniature CubeSats for education and research; and military/defense satellites.

Loading next visibility...
Identifier
61624, 2024-191D
Orbit
LEO
Country
Flag of USUS
Related business
Manufacturer
SpaceX/Seattle
Mission
Operational Commercial Communications
Bus & Motor
STARLINK V2M, Unknown motor
Mass
730 kg wet, ~700 kg dry
Launch date (UTC)
2024-10-23 (1 year ago)
Launch vehicle
FALCON 9
Launch site
Air Force Eastern Test Range (AFETR)
Object type
Payload
Rocket body
Debris
Shape & HBR
Box + 2 Pan, 17.7 m
Radar Cross Section
33.884 m², Large (>1 m²)

Expand to show TLE details & history
Last TLE update: 1 day ago

TLE from 1 day ago
0 STARLINK-32398
1 61624U 24191D   25309.50487247  .00004898  00000-0  18749-3 0  9993
2 61624  43.0018 135.8626 0000959 280.1279  79.9465 15.27563924 58546
Epoch: 2025-11-05T12:07Z
TLE epoch observation values (Epoch: 2025-11-05T12:07:00.981Z)
Latitude
0.00002°
Longitude
-90.86805°
Altitude
482.758 km
Speed
7.626 km/s
True Right ascension
09h 03m 27s
True Declination
0° 00' 00"
Sunlit
Object was in daylight at epoch
Visualization orbit readout
Latitude
Unknown
Longitude
Unknown
Altitude
Unknown
Speed
Unknown
Apparent Right ascension
Unknown
Apparent Declination
Unknown
Sunlit
N/A
Visualization observer readout
Local Sidereal Time
09:14:13
Azimuth
Unknown
Elevation
Unknown
Doppler factor
Unknown
Orbital elements
Apogee altitude
485.7 km
Perigee altitude
484.384 km
Semi-major axis
6,863.179 km
Eccentricity
0.0001
Inclination
43.0018°
RAAN
135.8626°
Arg. of periapsis
280.1279°
True anomaly
79.95732°
Mean anomaly
79.9465°
Eccentric anomaly
79.95191°
Mean motion
3.81729 °/min
Orbital period
94.31 mins
BSTAR
0.00018749
Loading maneuver chart data...
Computing Atmospheric mass density...
Loading historical data...
Loading historical data...
Loading historical data...
Loading historical data...
Loading historical data...
Loading historical data...
Loading historical data...

Documentation

Showing up to 5 results
|